Location: Newark
(35.6799°N, 139.7636°E)
Time: 20:01:01
(UTC+00:00)

Explorer 7 - Pass Details

Date: 16 December 2019
Orbit: 485 x 679 km, 50.3° (Epoch: 24 January)

Event Time Altitude Azimuth Distance (km) Brightness Sun altitude
Rises 12:23:31 0° 292° (WNW) 3,009 - -58.7°
Reaches altitude 10° 12:26:43 10° 271° (W) 2,068 - -59.4°
Maximum altitude 12:29:34 16° 234° (SW) 1,682 - -59.9°
Drops below altitude 10° 12:32:20 10° 197° (SSW) 2,003 - -60.5°
Sets 12:35:23 0° 175° (S) 2,864 - -61.1°
